Location: Hac?musa Deresi
(39.1694°N, 32.2508°E)
Time: 10:12:08
(UTC+00:00)

BlueWalker 3 - Visible Passes

Search period start: 11 June 2026 00:00
Search period end: 21 June 2026 00:00
Orbit: 447 x 456 km, 53.2° (Epoch: 10 June)

Date Brightness Start Highest point End Pass type
(mag) Time Alt. Az. Time Alt. Az. Time Alt. Az.
11 Jun 1.7 17:49:11 10° NW 17:52:44 77° NE 17:56:16 10° SE visible
11 Jun 4.3 19:28:57 10° WSW 19:29:36 10° SW 19:30:01 10° SW visible
12 Jun 4.1 18:50:32 10° W 18:52:37 15° SW 18:54:24 11° SSW visible
13 Jun 3.7 18:12:52 10° WNW 18:15:35 21° SW 18:18:17 10° S visible
